| time (UTC) | temp F | wind direction | speed MPH | gust MPH | rain 1hr in | rain 24hr in | rain mn in | humidity % | barometer mb |
| 20260905230527 | 71 | 355 | 0.0 | 0.0 | 0.00 | 0.00 | 0.00 | 29 | 1017.6 |
| 20260905225328 | 70 | 355 | 0.0 | 0.0 | 0.00 | 0.00 | 0.00 | 30 | 1017.7 |
| 20260905224135 | 70 | 355 | 0.0 | 0.0 | 0.00 | 0.00 | 0.00 | 30 | 1017.8 |
| 20260905222947 | 70 | 61 | 0.0 | 0.0 | 0.00 | 0.00 | 0.00 | 30 | 1018.0 |
| 20260905221717 | 70 | 75 | 0.0 | 0.0 | 0.00 | 0.00 | 0.00 | 31 | 1018.0 |
| 20260905220546 | 70 | 77 | 0.0 | 0.0 | 0.00 | 0.00 | 0.00 | 34 | 1018.0 |
| 20260905215308 | 71 | 71 | 0.0 | 0.0 | 0.00 | 0.00 | 0.00 | 34 | 1018.1 |
| 20260905214136 | 70 | 355 | 0.0 | 0.0 | 0.00 | 0.00 | 0.00 | 36 | 1018.3 |
| 20260905213000 | 69 | 331 | 0.0 | 0.0 | 0.00 | 0.00 | 0.00 | 37 | 1018.5 |
| 20260905211739 | 69 | 341 | 0.0 | 0.0 | 0.00 | 0.00 | 0.00 | 39 | 1018.6 |
| 20260905210610 | 68 | 23 | 0.0 | 0.0 | 0.00 | 0.00 | 0.00 | 37 | 1018.7 |
| 20260905205439 | 69 | 19 | 0.0 | 0.0 | 0.00 | 0.00 | 0.00 | 38 | 1018.8 |
| 20260905204225 | 69 | 92 | 0.0 | 0.0 | 0.00 | 0.00 | 0.00 | 37 | 1018.8 |
| 20260905203040 | 69 | 76 | 0.0 | 0.0 | 0.00 | 0.00 | 0.00 | 38 | 1018.8 |
| 20260905201824 | 68 | 113 | 0.0 | 0.0 | 0.00 | 0.00 | 0.00 | 38 | 1018.9 |
| 20260905200544 | 67 | 80 | 0.0 | 0.0 | 0.00 | 0.00 | 0.00 | 41 | 1019.1 |
| 20260905193932 | 66 | 26 | 0.0 | 0.0 | 0.00 | 0.00 | 0.00 | 44 | 1019.3 |
| 20260905192743 | 65 | 32 | 0.0 | 0.0 | 0.00 | 0.00 | 0.00 | 48 | 1019.3 |
| 20260905191523 | 65 | 0 | 0.0 | 0.0 | 0.00 | 0.00 | 0.00 | 56 | 1019.5 |
| 20260905190321 | 64 | 321 | 0.0 | 0.0 | 0.00 | 0.00 | 0.00 | 59 | 1019.6 |
| 20260905185045 | 64 | 328 | 0.0 | 0.0 | 0.00 | 0.01 | 0.00 | 61 | 1019.7 |
| 20260905183906 | 62 | 56 | 0.0 | 0.0 | 0.00 | 0.01 | 0.00 | 65 | 1019.8 |
| 20260905182706 | 62 | 13 | 0.0 | 1.0 | 0.00 | 0.02 | 0.00 | 64 | 1019.9 |
| 20260905180140 | 59 | 39 | 0.0 | 0.0 | 0.00 | 0.02 | 0.00 | 70 | 1020.1 |
| 20260905174926 | 59 | 24 | 0.0 | 0.0 | 0.00 | 0.02 | 0.00 | 73 | 1020.2 |
| 20260905173654 | 58 | 63 | 0.0 | 3.0 | 0.00 | 0.02 | 0.00 | 74 | 1020.4 |
| 20260905172433 | 57 | 42 | 0.0 | 1.0 | 0.00 | 0.02 | 0.00 | 77 | 1020.5 |
| 20260905171236 | 56 | 48 | 0.0 | 3.0 | 0.00 | 0.02 | 0.00 | 78 | 1020.4 |
| 20260905170002 | 56 | 5 | 0.0 | 0.0 | 0.00 | 0.02 | 0.00 | 79 | 1020.5 |
| 20260905164725 | 56 | 24 | 0.0 | 9.0 | 0.00 | 0.02 | 0.00 | 79 | 1020.4 |
| 20260905163502 | 55 | 30 | 0.0 | 5.0 | 0.00 | 0.02 | 0.00 | 81 | 1020.4 |
| 20260905162258 | 54 | 350 | 0.0 | 0.0 | 0.00 | 0.02 | 0.00 | 82 | 1020.5 |
| 20260905161029 | 53 | 38 | 0.0 | 3.0 | 0.00 | 0.02 | 0.00 | 85 | 1020.5 |
| 20260905155831 | 52 | 62 | 0.0 | 1.0 | 0.00 | 0.02 | 0.00 | 87 | 1020.7 |
| 20260905154618 | 52 | 38 | 0.0 | 0.0 | 0.00 | 0.02 | 0.00 | 89 | 1020.8 |
| 20260905153359 | 51 | 50 | 0.0 | 0.0 | 0.00 | 0.02 | 0.00 | 91 | 1020.8 |
| 20260905152204 | 50 | 128 | 0.0 | 0.0 | 0.00 | 0.02 | 0.00 | 93 | 1020.8 |
| 20260905151033 | 49 | 94 | 0.0 | 0.0 | 0.00 | 0.02 | 0.00 | 94 | 1020.7 |
| 20260905145822 | 48 | 86 | 0.0 | 0.0 | 0.00 | 0.02 | 0.00 | 93 | 1020.7 |
| 20260905144610 | 48 | 82 | 0.0 | 0.0 | 0.00 | 0.02 | 0.00 | 92 | 1020.5 |
| 20260905143351 | 48 | 60 | 0.0 | 0.0 | 0.00 | 0.02 | 0.00 | 90 | 1020.5 |
| 20260905142134 | 49 | 41 | 0.0 | 0.0 | 0.00 | 0.02 | 0.00 | 92 | 1020.4 |
| 20260905140946 | 48 | 94 | 0.0 | 0.0 | 0.00 | 0.02 | 0.00 | 93 | 1020.2 |
| 20260905135709 | 47 | 103 | 0.0 | 0.0 | 0.00 | 0.02 | 0.00 | 92 | 1020.2 |
| 20260905134456 | 47 | 105 | 0.0 | 0.0 | 0.00 | 0.02 | 0.00 | 91 | 1020.1 |
| 20260905133243 | 47 | 67 | 0.0 | 0.0 | 0.00 | 0.02 | 0.00 | 91 | 1020.0 |
| 20260905132043 | 47 | 49 | 0.0 | 0.0 | 0.00 | 0.02 | 0.00 | 91 | 1019.7 |
| 20260905125531 | 48 | 69 | 0.0 | 0.0 | 0.00 | 0.03 | 0.00 | 93 | 1019.5 |
| 20260905124326 | 47 | 74 | 0.0 | 0.0 | 0.00 | 0.03 | 0.00 | 94 | 1019.5 |
| 20260905123054 | 47 | 100 | 0.0 | 0.0 | 0.00 | 0.03 | 0.00 | 93 | 1019.5 |
| 20260905121913 | 46 | 96 | 0.0 | 0.0 | 0.00 | 0.03 | 0.00 | 93 | 1019.4 |
| 20260905120715 | 45 | 103 | 0.0 | 0.0 | 0.00 | 0.03 | 0.00 | 92 | 1019.4 |
| 20260905115502 | 45 | 74 | 0.0 | 0.0 | 0.00 | 0.03 | 0.00 | 92 | 1019.4 |
| 20260905114258 | 46 | 74 | 0.0 | 0.0 | 0.00 | 0.03 | 0.00 | 92 | 1019.2 |
| 20260905113118 | 46 | 71 | 0.0 | 0.0 | 0.00 | 0.03 | 0.00 | 92 | 1019.0 |
| 20260905111910 | 46 | 57 | 0.0 | 0.0 | 0.00 | 0.03 | 0.00 | 91 | 1018.8 |
| 20260905110729 | 46 | 57 | 0.0 | 0.0 | 0.00 | 0.03 | 0.00 | 91 | 1018.7 |
| 20260905105554 | 47 | 57 | 0.0 | 0.0 | 0.00 | 0.03 | 0.00 | 90 | 1018.8 |
| 20260905104347 | 47 | 57 | 0.0 | 0.0 | 0.00 | 0.03 | 0.00 | 90 | 1018.7 |
| 20260905103210 | 48 | 57 | 0.0 | 0.0 | 0.00 | 0.03 | 0.00 | 89 | 1018.7 |
| 20260905101935 | 48 | 57 | 0.0 | 0.0 | 0.00 | 0.03 | 0.00 | 89 | 1018.8 |
| 20260905100713 | 48 | 44 | 0.0 | 0.0 | 0.00 | 0.03 | 0.00 | 89 | 1018.8 |
| 20260905095507 | 48 | 36 | 0.0 | 0.0 | 0.00 | 0.03 | 0.00 | 89 | 1018.9 |
| 20260905094242 | 48 | 109 | 0.0 | 0.0 | 0.00 | 0.03 | 0.00 | 90 | 1018.9 |
| 20260905093014 | 48 | 110 | 0.0 | 0.0 | 0.00 | 0.03 | 0.00 | 89 | 1019.1 |
| 20260905091753 | 48 | 111 | 0.0 | 0.0 | 0.00 | 0.03 | 0.00 | 88 | 1019.2 |
| 20260905090546 | 49 | 110 | 0.0 | 0.0 | 0.00 | 0.03 | 0.00 | 87 | 1019.1 |
| 20260905085409 | 49 | 71 | 0.0 | 0.0 | 0.00 | 0.03 | 0.00 | 88 | 1019.0 |
| 20260905084237 | 50 | 91 | 0.0 | 0.0 | 0.00 | 0.03 | 0.00 | 86 | 1019.1 |
| 20260905083001 | 50 | 84 | 0.0 | 0.0 | 0.00 | 0.03 | 0.00 | 86 | 1018.9 |
| 20260905081757 | 49 | 69 | 0.0 | 0.0 | 0.00 | 0.03 | 0.00 | 86 | 1018.7 |
| 20260905080538 | 49 | 36 | 0.0 | 0.0 | 0.00 | 0.03 | 0.00 | 86 | 1018.6 |
| 20260905075305 | 50 | 36 | 0.0 | 0.0 | 0.00 | 0.03 | 0.00 | 86 | 1018.5 |
| 20260905074111 | 50 | 36 | 0.0 | 0.0 | 0.00 | 0.03 | 0.00 | 85 | 1018.4 |
| 20260905071526 | 50 | 36 | 0.0 | 0.0 | 0.00 | 0.03 | 0.00 | 85 | 1018.1 |
| 20260905065010 | 50 | 36 | 0.0 | 0.0 | 0.00 | 0.04 | 0.04 | 83 | 1018.0 |
| 20260905063747 | 51 | 36 | 0.0 | 0.0 | 0.00 | 0.05 | 0.04 | 83 | 1018.0 |
| 20260905062551 | 51 | 36 | 0.0 | 0.0 | 0.00 | 0.08 | 0.04 | 82 | 1018.1 |
| 20260905061329 | 51 | 36 | 0.0 | 0.0 | 0.00 | 0.09 | 0.04 | 82 | 1018.1 |
| 20260905060115 | 51 | 36 | 0.0 | 0.0 | 0.00 | 0.11 | 0.04 | 81 | 1018.0 |
| 20260905054919 | 52 | 36 | 0.0 | 0.0 | 0.00 | 0.12 | 0.04 | 81 | 1018.1 |
| 20260905053640 | 52 | 36 | 0.0 | 0.0 | 0.00 | 0.12 | 0.04 | 80 | 1018.2 |
| 20260905051125 | 53 | 36 | 0.0 | 0.0 | 0.00 | 0.13 | 0.04 | 78 | 1018.2 |
| 20260905045932 | 53 | 36 | 0.0 | 0.0 | 0.00 | 0.13 | 0.04 | 77 | 1018.1 |
| 20260905043334 | 54 | 38 | 0.0 | 0.0 | 0.00 | 0.13 | 0.04 | 75 | 1018.1 |
| 20260905042146 | 55 | 46 | 0.0 | 0.0 | 0.00 | 0.13 | 0.04 | 74 | 1018.1 |
| 20260905040913 | 55 | 15 | 0.0 | 0.0 | 0.00 | 0.13 | 0.04 | 73 | 1018.0 |
| 20260905035739 | 55 | 29 | 0.0 | 0.0 | 0.00 | 0.13 | 0.04 | 73 | 1018.0 |
| 20260905034603 | 55 | 34 | 0.0 | 0.0 | 0.00 | 0.13 | 0.04 | 72 | 1017.9 |
| 20260905033331 | 55 | 35 | 0.0 | 0.0 | 0.00 | 0.13 | 0.04 | 71 | 1017.9 |
| 20260905032131 | 56 | 21 | 0.0 | 0.0 | 0.00 | 0.13 | 0.04 | 69 | 1017.9 |
| 20260905030946 | 57 | 21 | 0.0 | 0.0 | 0.00 | 0.13 | 0.04 | 67 | 1017.9 |
| 20260905025809 | 57 | 17 | 0.0 | 0.0 | 0.00 | 0.13 | 0.04 | 65 | 1017.8 |
| 20260905024624 | 58 | 30 | 0.0 | 0.0 | 0.00 | 0.13 | 0.04 | 63 | 1017.7 |
| 20260905023358 | 58 | 23 | 0.0 | 0.0 | 0.00 | 0.13 | 0.04 | 62 | 1017.6 |
| 20260905022128 | 59 | 5 | 0.0 | 0.0 | 0.00 | 0.13 | 0.04 | 61 | 1017.5 |
| 20260905015644 | 60 | 0 | 0.0 | 4.0 | 0.00 | 0.13 | 0.04 | 62 | 1017.6 |
| 20260905014430 | 61 | 11 | 0.0 | 2.0 | 0.00 | 0.13 | 0.04 | 60 | 1017.5 |
| 20260905013252 | 61 | 0 | 0.0 | 0.0 | 0.00 | 0.13 | 0.04 | 60 | 1017.4 |
| 20260905012041 | 60 | 346 | 0.0 | 0.0 | 0.00 | 0.13 | 0.04 | 61 | 1017.1 |
| 20260905010839 | 61 | 34 | 0.0 | 1.0 | 0.00 | 0.13 | 0.04 | 59 | 1016.9 |
| 20260905005609 | 62 | 337 | 0.0 | 0.0 | 0.00 | 0.13 | 0.04 | 57 | 1017.1 |
| 20260905004420 | 62 | 49 | 0.0 | 0.0 | 0.00 | 0.13 | 0.04 | 54 | 1017.1 |
| 20260905003143 | 62 | 11 | 0.0 | 0.0 | 0.00 | 0.13 | 0.04 | 54 | 1017.1 |
| 20260905001953 | 62 | 82 | 0.0 | 1.0 | 0.00 | 0.13 | 0.04 | 55 | 1017.1 |
| 20260905000741 | 62 | 321 | 0.0 | 1.0 | 0.00 | 0.13 | 0.04 | 56 | 1017.2 |
| 20260904235526 | 62 | 316 | 0.0 | 0.0 | 0.00 | 0.13 | 0.04 | 57 | 1017.1 |
| 20260904234339 | 61 | 0 | 0.0 | 0.0 | 0.00 | 0.13 | 0.04 | 60 | 1017.2 |
| 20260904231824 | 62 | 199 | 0.0 | 0.0 | 0.00 | 0.13 | 0.04 | 59 | 1017.1 |